Location: ???????
(55.4231°N, 38.5570°E)
Time: 15:12:21
(UTC+00:00)

CZ-2C R/B - Pass Details

Date: 05 August 2024
Orbit: 703 x 903 km, 98.2° (Epoch: 18 September)

Event Time Altitude Azimuth Distance (km) Brightness Sun altitude
Rises 00:01:16 0° 14° (NNE) 3,126 7.6 -11.1°
Reaches altitude 10° 00:03:31 10° 12° (NNE) 2,215 6.5 -10.9°
Maximum altitude 00:08:20 71° 290° (WNW) 783 3.0 -10.5°
Enters shadow 00:12:52 13° 207° (SSW) 2,108 4.6 -10.1°
